Orbital Elements at Epoch 2459200.5 (2020-Dec-17.0) TDB
Reference: JPL 26 (heliocentric ecliptic J2000)
Element | Value | Uncertainty (1-sigma) | Units |
e | .1387123291983285 | 3.3925e-08 | |
a | 2.299511107358949 | 7.2353e-09 | au |
q | 1.980540565639762 | 7.6701e-08 | au |
i | 5.874075114093478 | 3.9277e-06 | deg |
node | 353.6977835411478 | 2.9864e-05 | deg |
peri | 220.5859508664153 | 3.2521e-05 | deg |
M | 108.2025969296513 | 1.2277e-05 | deg |
tp | 2458817.686823483942 (2019-Nov-30.18682348) | 4.3275e-05 | TDB |
period | 1273.654676101544 3.49 | 6.0113e-06 1.646e-08 | d yr |
n | .2826511822670044 | 1.334e-09 | deg/d |
Q | 2.618481649078137 | 8.239e-09 | au |
|
| | Orbit Determination Parameters
Additional Information
|